WZZ104 EPGD-LGAV

Flight info

Callsign WZZ104
Flight time N/A
Altitude 35000
Route IRLUN N133 LENOV DCT KEKED DCT OVDOT DCT LOMOS/N0442F360 DCT BENGO DCT LETNI/N0440F350 DCT MAKED UL617 SKP UM749 ROPOX
Aircraft A21N/M-SDE1E2E3FGIJ1J4RWXY/LB1

Departure

Time 2026-05-06 11:10
Airport Gdańsk Lech Wałęsa Airport (EPGD)

Arrival

Time N/A
Airport Athens Eleftherios Venizelos International Airport (LGAV)
Time Latitude Longitude Altitude Speed Heading
2026-05-06 10:44 54.38036 18.46723 450 ft 0 kts 23°
2026-05-06 10:54 54.38035 18.46723 450 ft 0 kts 23°
2026-05-06 10:54 54.38024 18.46714 450 ft 2 kts 23°
2026-05-06 10:54 54.38010 18.46703 449 ft 2 kts 24°
2026-05-06 10:54 54.37996 18.46693 449 ft 2 kts 23°
2026-05-06 10:55 54.37983 18.46683 448 ft 2 kts 23°
2026-05-06 10:55 54.37969 18.46672 448 ft 2 kts 23°
2026-05-06 10:55 54.37961 18.46666 447 ft 2 kts 23°
2026-05-06 10:55 54.37946 18.46660 447 ft 2 kts 349°
2026-05-06 10:56 54.37931 18.46668 447 ft 2 kts 330°
2026-05-06 10:56 54.37920 18.46685 447 ft 2 kts 305°
2026-05-06 10:56 54.37915 18.46697 447 ft 1 kts 291°
2026-05-06 10:56 54.37913 18.46707 447 ft 0 kts 291°
2026-05-06 10:59 54.37914 18.46702 447 ft 1 kts 292°
2026-05-06 10:59 54.37922 18.46670 447 ft 4 kts 292°
2026-05-06 11:00 54.37937 18.46612 446 ft 6 kts 294°
2026-05-06 11:00 54.37957 18.46534 446 ft 7 kts 293°
2026-05-06 11:00 54.37977 18.46455 446 ft 7 kts 293°
2026-05-06 11:00 54.37998 18.46371 447 ft 7 kts 292°
2026-05-06 11:01 54.38018 18.46286 447 ft 7 kts 292°
2026-05-06 11:01 54.38040 18.46196 447 ft 8 kts 292°
2026-05-06 11:01 54.38063 18.46102 447 ft 8 kts 292°
2026-05-06 11:01 54.38088 18.46002 447 ft 9 kts 292°
2026-05-06 11:02 54.38115 18.45890 446 ft 10 kts 293°
2026-05-06 11:02 54.38144 18.45771 446 ft 11 kts 289°
2026-05-06 11:02 54.38132 18.45653 445 ft 8 kts 218°
2026-05-06 11:02 54.38114 18.45637 445 ft 0 kts 202°
2026-05-06 11:05 54.38105 18.45630 445 ft 3 kts 202°
2026-05-06 11:05 54.38070 18.45605 444 ft 7 kts 202°
2026-05-06 11:05 54.38036 18.45517 442 ft 11 kts 272°
2026-05-06 11:05 54.38064 18.45391 443 ft 10 kts 306°
2026-05-06 11:06 54.38120 18.45306 443 ft 10 kts 307°
2026-05-06 11:06 54.38113 18.45228 442 ft 5 kts 211°
2026-05-06 11:06 54.38097 18.45240 442 ft 0 kts 113°
2026-05-06 11:09 54.38097 18.45241 442 ft 0 kts 113°
2026-05-06 11:09 54.38053 18.45416 443 ft 49 kts 113°
2026-05-06 11:09 54.37818 18.46369 440 ft 122 kts 112°
2026-05-06 11:09 54.37415 18.48005 560 ft 168 kts 109°
2026-05-06 11:10 54.36955 18.49837 1283 ft 170 kts 108°
2026-05-06 11:10 54.36518 18.51623 2155 ft 159 kts 107°
2026-05-06 11:10 54.36121 18.53268 2853 ft 149 kts 110°
2026-05-06 11:10 54.35748 18.54874 3430 ft 144 kts 111°
2026-05-06 11:11 54.35354 18.56434 3898 ft 144 kts 114°
2026-05-06 11:11 54.34696 18.57781 4086 ft 164 kts 155°
2026-05-06 11:11 54.33488 18.57964 4342 ft 183 kts 174°
2026-05-06 11:11 54.32166 18.58048 4649 ft 197 kts 173°
2026-05-06 11:12 54.30749 18.58163 4956 ft 212 kts 174°
2026-05-06 11:12 54.29218 18.58282 5191 ft 232 kts 175°
2026-05-06 11:12 54.27535 18.58398 5544 ft 249 kts 176°
2026-05-06 11:12 54.25790 18.58511 6117 ft 256 kts 177°
2026-05-06 11:13 54.24014 18.58624 6865 ft 256 kts 178°
2026-05-06 11:13 54.22237 18.58729 7583 ft 257 kts 178°
2026-05-06 11:13 54.20460 18.58832 8215 ft 260 kts 179°
2026-05-06 11:13 54.18656 18.58939 8837 ft 263 kts 179°
2026-05-06 11:14 54.16820 18.59047 9460 ft 266 kts 179°
2026-05-06 11:14 54.14978 18.59156 10046 ft 269 kts 179°
2026-05-06 11:14 54.13077 18.59267 10384 ft 282 kts 180°
2026-05-06 11:14 54.11061 18.59384 10662 ft 296 kts 180°
2026-05-06 11:15 54.08999 18.59506 11129 ft 302 kts 180°
2026-05-06 11:15 54.06890 18.59634 11741 ft 303 kts 180°
2026-05-06 11:15 54.04804 18.59759 12303 ft 306 kts 180°
2026-05-06 11:15 54.02681 18.59885 12850 ft 309 kts 180°
2026-05-06 11:16 54.00517 18.60145 13379 ft 314 kts 172°
2026-05-06 11:16 53.98418 18.61192 13899 ft 320 kts 163°
2026-05-06 11:16 53.96331 18.62486 14376 ft 324 kts 163°
2026-05-06 11:16 53.94160 18.63835 14614 ft 336 kts 164°
2026-05-06 11:17 53.91927 18.65186 14849 ft 348 kts 165°
2026-05-06 11:17 53.89634 18.66546 15165 ft 353 kts 165°
2026-05-06 11:17 53.87313 18.67907 15644 ft 356 kts 165°
2026-05-06 11:17 53.84964 18.69270 16141 ft 358 kts 165°
2026-05-06 11:18 53.82627 18.70618 16601 ft 360 kts 165°
2026-05-06 11:18 53.80240 18.71987 17056 ft 362 kts 165°
2026-05-06 11:18 53.77869 18.73342 17501 ft 364 kts 166°
2026-05-06 11:18 53.75460 18.74716 17938 ft 367 kts 165°
2026-05-06 11:19 53.73056 18.76082 18404 ft 368 kts 166°
2026-05-06 11:19 53.70640 18.77454 18815 ft 370 kts 165°
2026-05-06 11:19 53.68173 18.78853 19214 ft 373 kts 165°
2026-05-06 11:19 53.65746 18.80229 19621 ft 375 kts 165°
2026-05-06 11:20 53.63257 18.81636 20036 ft 376 kts 166°
2026-05-06 11:20 53.60789 18.83029 20438 ft 378 kts 166°
2026-05-06 11:20 53.58297 18.84436 20819 ft 379 kts 166°
2026-05-06 11:20 53.55797 18.85844 21173 ft 381 kts 166°
2026-05-06 11:21 53.53305 18.87245 21535 ft 383 kts 166°
2026-05-06 11:21 53.50768 18.88670 21892 ft 385 kts 166°
2026-05-06 11:21 53.48215 18.90101 22253 ft 386 kts 166°
2026-05-06 11:21 53.45668 18.91526 22628 ft 388 kts 166°
2026-05-06 11:22 53.43123 18.92948 22969 ft 389 kts 166°
2026-05-06 11:22 53.40550 18.94388 23288 ft 391 kts 166°
2026-05-06 11:22 53.37970 18.95827 23601 ft 393 kts 166°
2026-05-06 11:22 53.35377 18.97271 23930 ft 395 kts 166°
2026-05-06 11:23 53.32806 18.98700 24234 ft 396 kts 166°
2026-05-06 11:23 53.30165 19.00166 24542 ft 398 kts 166°
2026-05-06 11:23 53.27539 19.01623 24815 ft 400 kts 166°
2026-05-06 11:23 53.24918 19.03077 25091 ft 402 kts 166°
2026-05-06 11:24 53.22259 19.04550 25371 ft 404 kts 166°
2026-05-06 11:24 53.19605 19.06017 25626 ft 406 kts 166°
2026-05-06 11:24 53.16917 19.07501 25900 ft 407 kts 166°
2026-05-06 11:24 53.14263 19.08964 26164 ft 409 kts 166°
2026-05-06 11:25 53.11557 19.10454 26417 ft 410 kts 166°
2026-05-06 11:25 53.08830 19.11955 26631 ft 412 kts 166°
2026-05-06 11:25 53.06125 19.13439 26854 ft 414 kts 166°
2026-05-06 11:25 53.03388 19.14941 27065 ft 416 kts 166°
2026-05-06 11:26 53.00630 19.16452 27320 ft 418 kts 166°
2026-05-06 11:26 52.97881 19.17955 27557 ft 419 kts 166°
2026-05-06 11:26 52.95142 19.19451 27777 ft 420 kts 166°
2026-05-06 11:26 52.92336 19.20981 28003 ft 422 kts 166°
2026-05-06 11:27 52.89555 19.22496 28264 ft 422 kts 166°
2026-05-06 11:27 52.86798 19.23995 28497 ft 423 kts 166°
2026-05-06 11:27 52.83990 19.25522 28741 ft 424 kts 166°
2026-05-06 11:27 52.81194 19.27040 29088 ft 422 kts 166°
2026-05-06 11:28 52.78404 19.28554 29420 ft 421 kts 166°
2026-05-06 11:28 52.75659 19.30041 29757 ft 420 kts 166°
2026-05-06 11:28 52.72893 19.31536 30093 ft 418 kts 166°
2026-05-06 11:28 52.70166 19.33007 30398 ft 417 kts 167°
2026-05-06 11:29 52.67385 19.34507 30711 ft 417 kts 167°
2026-05-06 11:29 52.64661 19.35973 30985 ft 416 kts 167°
2026-05-06 11:29 52.61902 19.37455 31249 ft 415 kts 167°
2026-05-06 11:29 52.59194 19.38909 31511 ft 415 kts 167°
2026-05-06 11:30 52.56480 19.40361 31783 ft 414 kts 167°
2026-05-06 11:30 52.53737 19.41830 32049 ft 413 kts 167°
2026-05-06 11:30 52.51019 19.43284 32316 ft 412 kts 167°
2026-05-06 11:30 52.48307 19.44731 32583 ft 411 kts 167°
2026-05-06 11:31 52.45590 19.46179 32839 ft 410 kts 167°
2026-05-06 11:31 52.42883 19.47620 33052 ft 410 kts 167°
2026-05-06 11:31 52.40190 19.49052 33222 ft 412 kts 167°
2026-05-06 11:31 52.37469 19.50497 33403 ft 412 kts 167°
2026-05-06 11:32 52.34754 19.51938 33579 ft 413 kts 167°
2026-05-06 11:32 52.32034 19.53378 33743 ft 414 kts 167°
2026-05-06 11:32 52.29270 19.54840 33920 ft 415 kts 167°
2026-05-06 11:32 52.26563 19.56269 34078 ft 415 kts 167°
2026-05-06 11:33 52.23819 19.57715 34252 ft 416 kts 167°
2026-05-06 11:33 52.21048 19.59176 34434 ft 416 kts 167°
2026-05-06 11:33 52.18326 19.60613 34607 ft 416 kts 167°
2026-05-06 11:33 52.15575 19.62058 34734 ft 418 kts 167°
2026-05-06 11:34 52.12816 19.63509 34740 ft 419 kts 167°
2026-05-06 11:34 52.07265 19.66417 34738 ft 420 kts 168°
2026-05-06 11:35 52.01740 19.69305 34738 ft 420 kts 168°
2026-05-06 11:35 51.96180 19.72202 34744 ft 422 kts 168°
2026-05-06 11:36 51.90585 19.75111 34749 ft 421 kts 168°
2026-05-06 11:36 51.85004 19.78004 34755 ft 422 kts 167°
2026-05-06 11:37 51.79444 19.80879 34759 ft 424 kts 167°
2026-05-06 11:37 51.73832 19.83777 34758 ft 424 kts 167°
2026-05-06 11:38 51.68242 19.86654 34759 ft 424 kts 167°
2026-05-06 11:38 51.62592 19.89554 34761 ft 425 kts 167°
2026-05-06 11:39 51.56993 19.92419 34762 ft 425 kts 167°
2026-05-06 11:39 51.51388 19.95278 34759 ft 425 kts 167°
2026-05-06 11:40 51.45747 19.98151 34763 ft 426 kts 167°
2026-05-06 11:40 51.40153 20.00992 34765 ft 426 kts 167°
2026-05-06 11:41 51.34487 20.03864 34771 ft 426 kts 167°
2026-05-06 11:41 51.28863 20.06706 34777 ft 426 kts 167°
2026-05-06 11:42 51.23237 20.09542 34784 ft 427 kts 167°
2026-05-06 11:42 51.17562 20.12397 34788 ft 427 kts 167°
2026-05-06 11:43 51.11925 20.15222 34793 ft 427 kts 167°
2026-05-06 11:43 51.06285 20.18040 34799 ft 429 kts 167°
2026-05-06 11:44 50.97758 20.22292 34802 ft 429 kts 166°
2026-05-06 11:44 50.92061 20.25121 34802 ft 430 kts 166°
2026-05-06 11:45 50.86395 20.27930 34804 ft 430 kts 166°
2026-05-06 11:45 50.80661 20.30767 34800 ft 430 kts 166°
2026-05-06 11:46 50.74986 20.33563 34802 ft 431 kts 166°
2026-05-06 11:46 50.69278 20.36374 34799 ft 430 kts 166°
2026-05-06 11:47 50.63560 20.39178 34794 ft 432 kts 166°
2026-05-06 11:47 50.57841 20.41974 34794 ft 432 kts 166°
2026-05-06 11:48 50.52101 20.44776 34793 ft 433 kts 166°
2026-05-06 11:48 50.46389 20.47556 34795 ft 433 kts 166°
2026-05-06 11:49 50.40655 20.50342 34797 ft 434 kts 166°
2026-05-06 11:49 50.34869 20.53145 34794 ft 435 kts 166°
2026-05-06 11:50 50.29109 20.55927 34797 ft 436 kts 166°
2026-05-06 11:50 50.23346 20.58706 34801 ft 435 kts 166°
2026-05-06 11:51 50.17571 20.61484 34803 ft 436 kts 166°
2026-05-06 11:51 50.11819 20.64241 34798 ft 436 kts 166°
2026-05-06 11:52 50.06004 20.67019 34802 ft 436 kts 166°
2026-05-06 11:52 50.00229 20.69774 34809 ft 437 kts 166°
2026-05-06 11:53 49.94430 20.72536 34813 ft 437 kts 166°
2026-05-06 11:53 49.88634 20.75287 34824 ft 438 kts 166°
2026-05-06 11:54 49.82796 20.78052 34835 ft 439 kts 166°
2026-05-06 11:54 49.76976 20.80801 34829 ft 439 kts 166°
2026-05-06 11:55 49.71192 20.83528 34841 ft 438 kts 166°
2026-05-06 11:55 49.65382 20.86256 34850 ft 438 kts 166°
2026-05-06 11:56 49.59552 20.88987 34861 ft 438 kts 166°
2026-05-06 11:56 49.53741 20.91703 34869 ft 438 kts 166°
2026-05-06 11:57 49.47920 20.94415 34867 ft 439 kts 166°
2026-05-06 11:57 49.42092 20.97126 34873 ft 439 kts 166°
2026-05-06 11:58 49.36234 20.99843 34881 ft 440 kts 166°
2026-05-06 11:58 49.30362 21.02197 34890 ft 438 kts 171°
2026-05-06 11:59 49.24466 21.04270 34890 ft 438 kts 171°
2026-05-06 11:59 49.18549 21.06347 34893 ft 437 kts 171°
2026-05-06 12:00 49.12632 21.08413 34896 ft 437 kts 171°
2026-05-06 12:00 49.06695 21.10478 34892 ft 438 kts 171°
2026-05-06 12:01 49.00769 21.12535 34889 ft 439 kts 171°
2026-05-06 12:01 48.94859 21.14581 34886 ft 439 kts 171°
2026-05-06 12:02 48.88932 21.16629 34901 ft 438 kts 171°
2026-05-06 12:02 48.82964 21.18685 34905 ft 438 kts 171°
2026-05-06 12:03 48.77016 21.20728 34904 ft 439 kts 171°
2026-05-06 12:03 48.71106 21.22753 34900 ft 439 kts 171°
2026-05-06 12:04 48.65146 21.24791 34902 ft 439 kts 171°
2026-05-06 12:04 48.59196 21.26818 34902 ft 440 kts 171°
2026-05-06 12:05 48.53276 21.28848 34899 ft 440 kts 170°
2026-05-06 12:05 48.47375 21.31427 34904 ft 443 kts 167°
2026-05-06 12:06 48.41471 21.34117 34905 ft 443 kts 167°
2026-05-06 12:06 48.35577 21.36795 34903 ft 444 kts 167°
2026-05-06 12:07 48.29687 21.39463 34904 ft 446 kts 167°
2026-05-06 12:07 48.23757 21.42147 34887 ft 447 kts 167°
2026-05-06 12:08 48.17824 21.44824 34893 ft 447 kts 167°
2026-05-06 12:08 48.11842 21.47516 34891 ft 447 kts 167°
2026-05-06 12:09 48.05911 21.50179 34902 ft 448 kts 167°
2026-05-06 12:09 47.99954 21.52849 34905 ft 448 kts 167°
2026-05-06 12:10 47.94011 21.55504 34906 ft 449 kts 167°
2026-05-06 12:10 47.88114 21.58133 34911 ft 450 kts 167°
2026-05-06 12:11 47.82132 21.60794 34918 ft 450 kts 167°
2026-05-06 12:11 47.76129 21.63458 34914 ft 451 kts 167°
2026-05-06 12:12 47.70150 21.66106 34912 ft 451 kts 167°
2026-05-06 12:12 47.64131 21.68764 34923 ft 452 kts 167°
2026-05-06 12:13 47.58124 21.71409 34932 ft 452 kts 167°
2026-05-06 12:13 47.52090 21.74061 34934 ft 453 kts 167°
2026-05-06 12:14 47.46073 21.76698 34934 ft 454 kts 167°
2026-05-06 12:14 47.40007 21.79351 34938 ft 454 kts 167°
2026-05-06 12:15 47.33957 21.81991 34939 ft 456 kts 167°
2026-05-06 12:15 47.27880 21.84636 34943 ft 456 kts 167°
2026-05-06 12:16 47.21829 21.87261 34945 ft 457 kts 167°
2026-05-06 12:16 47.15760 21.89890 34947 ft 458 kts 167°
2026-05-06 12:17 47.09656 21.92530 34952 ft 459 kts 167°
2026-05-06 12:17 47.03540 21.95165 34960 ft 459 kts 167°
2026-05-06 12:18 46.97425 21.97798 34964 ft 460 kts 167°
2026-05-06 12:18 46.91307 22.00422 34965 ft 460 kts 167°
2026-05-06 12:19 46.85141 22.03061 34963 ft 461 kts 167°
2026-05-06 12:19 46.79040 22.05668 34958 ft 460 kts 167°
2026-05-06 12:20 46.72905 22.08282 34957 ft 461 kts 167°
2026-05-06 12:20 46.66723 22.10907 34957 ft 462 kts 167°
2026-05-06 12:21 46.60592 22.13507 34964 ft 462 kts 167°
2026-05-06 12:21 46.54443 22.16107 34971 ft 462 kts 167°
2026-05-06 12:22 46.48284 22.18706 34978 ft 463 kts 167°
2026-05-06 12:22 46.42099 22.21310 34982 ft 463 kts 167°
2026-05-06 12:23 46.35931 22.23901 34989 ft 463 kts 167°
2026-05-06 12:23 46.29737 22.26497 34986 ft 465 kts 167°
2026-05-06 12:24 46.23525 22.29092 34980 ft 466 kts 167°
2026-05-06 12:24 46.17298 22.31690 34980 ft 466 kts 167°
2026-05-06 12:25 46.11076 22.34278 34978 ft 467 kts 167°
2026-05-06 12:25 46.04864 22.36857 34980 ft 467 kts 167°
2026-05-06 12:26 45.98607 22.39448 34977 ft 467 kts 167°
2026-05-06 12:26 45.92386 22.42018 34994 ft 468 kts 167°
2026-05-06 12:27 45.86149 22.44588 34995 ft 469 kts 167°
2026-05-06 12:27 45.79856 22.47175 35014 ft 470 kts 167°
2026-05-06 12:28 45.73603 22.49743 35021 ft 469 kts 167°
2026-05-06 12:28 45.67363 22.52295 35029 ft 470 kts 167°
2026-05-06 12:29 45.61066 22.54866 35021 ft 471 kts 167°
2026-05-06 12:29 45.54767 22.57429 35017 ft 472 kts 167°
2026-05-06 12:30 45.48474 22.59989 35009 ft 472 kts 167°
2026-05-06 12:30 45.42188 22.62538 35016 ft 473 kts 167°
2026-05-06 12:31 45.35884 22.65089 35024 ft 472 kts 167°
2026-05-06 12:31 45.29549 22.67647 35033 ft 473 kts 168°
2026-05-06 12:32 45.23200 22.70202 35040 ft 474 kts 167°
2026-05-06 12:32 45.16870 22.72745 35034 ft 474 kts 167°
2026-05-06 12:33 45.10559 22.75275 35022 ft 473 kts 167°
2026-05-06 12:33 45.04213 22.77811 35008 ft 475 kts 167°
2026-05-06 12:34 44.97862 22.80346 34992 ft 476 kts 167°
2026-05-06 12:34 44.91526 22.82865 34983 ft 476 kts 167°
2026-05-06 12:35 44.85146 22.85399 34976 ft 476 kts 167°